Meteo pe oră la Almenno San Salvatore

Astăzi, 24 Ianuarie, Duminică

Timp Temperatura Precipitaţii Vânt Presiune Umiditate
00:00 +2°C° 0 mm 1 m/s 715 mmHg 75%
01:00 +1°C° 0 mm 2 m/s 715 mmHg 73%
02:00 -1°C° 0 mm 2 m/s 715 mmHg 70%
03:00 -1°C° 0 mm 2 m/s 715 mmHg 68%
04:00 -1°C° 0 mm 2 m/s 715 mmHg 66%
05:00 -1°C° 0 mm 2 m/s 716 mmHg 64%
06:00 -1°C° 0 mm 2 m/s 716 mmHg 63%
07:00 -2°C° 0 mm 2 m/s 717 mmHg 62%
08:00 -1°C° 0 mm 2 m/s 717 mmHg 61%
09:00 +2°C° 0 mm 1 m/s 717 mmHg 60%
10:00 +3°C° 0 mm 1 m/s 718 mmHg 59%
11:00 +4°C° 0 mm 1 m/s 718 mmHg 57%
12:00 +5°C° 0 mm 1 m/s 718 mmHg 56%
13:00 +6°C° 0 mm 1 m/s 718 mmHg 55%
14:00 +6°C° 0 mm 1 m/s 717 mmHg 60%
15:00 +5°C° 0 mm 1 m/s 717 mmHg 65%
16:00 +5°C° 0 mm 1 m/s 717 mmHg 70%
17:00 +4°C° 0 mm 1 m/s 718 mmHg 73%
18:00 +3°C° 0 mm 1 m/s 718 mmHg 77%
19:00 +2°C° 0 mm 1 m/s 719 mmHg 80%
20:00 +2°C° 0 mm 1 m/s 719 mmHg 78%
21:00 +2°C° 0 mm 1 m/s 719 mmHg 76%
22:00 +2°C° 0 mm 1 m/s 719 mmHg 74%
23:00 +1°C° 0 mm 1 m/s 718 mmHg 72%

Mâine, 25 Ianuarie, Luni

Timp Temperatura Precipitaţii Vânt Presiune Umiditate
00:00 -1°C° 0 mm 2 m/s 718 mmHg 70%
01:00 -1°C° 0 mm 2 m/s 718 mmHg 67%
02:00 -1°C° 0 mm 2 m/s 719 mmHg 65%
03:00 -1°C° 0 mm 2 m/s 719 mmHg 63%
04:00 -2°C° 0 mm 2 m/s 719 mmHg 61%
05:00 -2°C° 0 mm 2 m/s 720 mmHg 59%
06:00 -2°C° 0 mm 2 m/s 721 mmHg 57%
07:00 -2°C° 0 mm 2 m/s 722 mmHg 55%
08:00 -1°C° 0 mm 2 m/s 722 mmHg 55%
09:00 +1°C° 0 mm 2 m/s 723 mmHg 55%
10:00 +1°C° 0 mm 2 m/s 724 mmHg 55%
11:00 +3°C° 0 mm 2 m/s 724 mmHg 51%
12:00 +4°C° 0 mm 2 m/s 725 mmHg 48%
13:00 +5°C° 0 mm 2 m/s 725 mmHg 44%
14:00 +5°C° 0 mm 2 m/s 725 mmHg 46%
15:00 +5°C° 0 mm 2 m/s 725 mmHg 48%
16:00 +5°C° 0 mm 2 m/s 726 mmHg 50%
17:00 +3°C° 0 mm 2 m/s 726 mmHg 52%
18:00 +2°C° 0 mm 2 m/s 727 mmHg 55%
19:00 -1°C° 0 mm 2 m/s 728 mmHg 58%
20:00 -1°C° 0 mm 2 m/s 728 mmHg 56%
21:00 -2°C° 0 mm 2 m/s 729 mmHg 54%
22:00 -2°C° 0 mm 2 m/s 729 mmHg 52%
23:00 -2°C° 0 mm 2 m/s 729 mmHg 52%

Poimâine, 26 Ianuarie, Marţi

Timp Temperatura Precipitaţii Vânt Presiune Umiditate
00:00 -2°C° 0 mm 2 m/s 730 mmHg 51%
01:00 -2°C° 0 mm 2 m/s 730 mmHg 50%
02:00 -3°C° 0 mm 2 m/s 730 mmHg 51%
03:00 -3°C° 0 mm 2 m/s 730 mmHg 51%
04:00 -3°C° 0 mm 2 m/s 730 mmHg 51%
05:00 -3°C° 0 mm 2 m/s 730 mmHg 51%
06:00 -3°C° 0 mm 2 m/s 731 mmHg 51%
07:00 -3°C° 0 mm 2 m/s 731 mmHg 51%
08:00 -2°C° 0 mm 2 m/s 731 mmHg 50%
09:00 -1°C° 0 mm 2 m/s 731 mmHg 49%
10:00 +2°C° 0 mm 1 m/s 731 mmHg 48%
11:00 +3°C° 0 mm 1 m/s 731 mmHg 47%
12:00 +5°C° 0 mm 1 m/s 731 mmHg 45%
13:00 +6°C° 0 mm 1 m/s 731 mmHg 44%
14:00 +6°C° 0 mm 1 m/s 731 mmHg 48%
15:00 +6°C° 0 mm 1 m/s 730 mmHg 52%
16:00 +5°C° 0 mm 1 m/s 730 mmHg 55%
17:00 +4°C° 0 mm 1 m/s 731 mmHg 58%
18:00 +3°C° 0 mm 1 m/s 731 mmHg 60%
19:00 +2°C° 0 mm 1 m/s 731 mmHg 62%
20:00 +2°C° 0 mm 1 m/s 731 mmHg 60%
21:00 +1°C° 0 mm 1 m/s 731 mmHg 59%
22:00 +1°C° 0 mm 1 m/s 731 mmHg 57%
23:00 +1°C° 0 mm 1 m/s 731 mmHg 56%

27 Ianuarie, Miercuri

Timp Temperatura Precipitaţii Vânt Presiune Umiditate
00:00 +1°C° 0 mm 1 m/s 731 mmHg 56%
01:00 +1°C° 0 mm 1 m/s 731 mmHg 55%
02:00 +1°C° 0 mm 1 m/s 730 mmHg 55%
03:00 +1°C° 0 mm 1 m/s 730 mmHg 55%
04:00 +1°C° 0 mm 1 m/s 730 mmHg 55%
05:00 +1°C° 0 mm 1 m/s 729 mmHg 56%
06:00 +1°C° 0 mm 1 m/s 729 mmHg 56%
07:00 +1°C° 0 mm 1 m/s 729 mmHg 57%
08:00 +2°C° 0.1 mm 1 m/s 729 mmHg 59%
09:00 +2°C° 0.1 mm 1 m/s 729 mmHg 62%
10:00 +3°C° 0.1 mm 1 m/s 729 mmHg 64%
11:00 +4°C° 0 mm 1 m/s 730 mmHg 64%
12:00 +6°C° 0 mm 1 m/s 730 mmHg 63%
13:00 +6°C° 0 mm 2 m/s 730 mmHg 62%
14:00 +7°C° 0 mm 1 m/s 730 mmHg 65%
15:00 +7°C° 0 mm 1 m/s 730 mmHg 68%
16:00 +7°C° 0 mm 1 m/s 730 mmHg 71%
17:00 +5°C° 0 mm 2 m/s 730 mmHg 71%
18:00 +4°C° 0 mm 2 m/s 731 mmHg 70%
19:00 +2°C° 0 mm 3 m/s 732 mmHg 69%
20:00 +2°C° 0 mm 2 m/s 732 mmHg 69%
21:00 +2°C° 0 mm 2 m/s 732 mmHg 68%
22:00 +1°C° 0 mm 2 m/s 733 mmHg 68%
23:00 +1°C° 0 mm 2 m/s 732 mmHg 66%

28 Ianuarie, Joi

Timp Temperatura Precipitaţii Vânt Presiune Umiditate
00:00 +1°C° 0 mm 2 m/s 732 mmHg 65%
01:00 +1°C° 0 mm 2 m/s 732 mmHg 63%
02:00 +1°C° 0 mm 2 m/s 732 mmHg 62%
03:00 +2°C° 0 mm 1 m/s 731 mmHg 60%
04:00 +2°C° 0 mm 1 m/s 731 mmHg 59%
05:00 +2°C° 0 mm 1 m/s 731 mmHg 59%
06:00 +2°C° 0 mm 1 m/s 731 mmHg 59%
07:00 +3°C° 0 mm 1 m/s 731 mmHg 59%
08:00 +3°C° 0 mm 1 m/s 731 mmHg 60%
09:00 +3°C° 0 mm 0 m/s 731 mmHg 61%
10:00 +4°C° 0 mm 0 m/s 730 mmHg 62%
11:00 +5°C° 0 mm 0 m/s 730 mmHg 61%
12:00 +5°C° 0 mm 0 m/s 730 mmHg 60%
13:00 +6°C° 0 mm 0 m/s 730 mmHg 60%
14:00 +6°C° 0 mm 0 m/s 729 mmHg 62%
15:00 +5°C° 0 mm 0 m/s 729 mmHg 64%
16:00 +5°C° 0 mm 0 m/s 728 mmHg 66%
17:00 +5°C° 0 mm 0 m/s 728 mmHg 68%
18:00 +4°C° 0 mm 0 m/s 728 mmHg 69%
19:00 +3°C° 0 mm 0 m/s 728 mmHg 71%

29 Ianuarie, Vineri

Timp Temperatura Precipitaţii Vânt Presiune Umiditate
Arată mai mult

Formular de consimțământ

Meteoprog și furnizorii noștri de servicii pot stoca și accesa date personale, precum cookies, identificatori de dispozitiv sau alte tehnologii similare pe dispozitivul dumneavoastră și procesa astfel de date pentru a personaliza conținutul și reclamele, dar și pentru a oferi caracteristici de social media și pentru a analiza traficul.

  • Stocarea și/sau accesarea informațiilor pe dispozitivul dumneavoastră

    Cookies, identificatori de dispozitiv sau alte informații pot fi stocate sau accesate pe dispozitiv în scopurile indicate mai sus.

  • Reclame și conținut personalizat, evaluarea reclamelor și a conținutului, informații despre audiențe și dezvoltarea produselor

    Reclamele și conținutul pot fi personalizate pe baza unui profil. Pot fi adăugate date suplimentare pentru a personaliza mai bine reclamele și conținutul. Performanța reclamelor și conținutului poate fi măsurată. Pot fi obținute informații despre utilizatorii care au văzut reclamele și conținutul. Aceste date pot fi utilizate pentru a dezvolta sau îmbunătăți experiența utilizatorilor, sistemele și software-ul.

Dând clic pe ‘Sunt de acord’, permiteți utilizarea cookie-urilor menționate, a identificatorilor de dispozitiv, balizelor web sau altor tehnologii similare. Setările pot fi modificate din browser-ul dispozitivului dumneavoastră.

În anumite scopuri, interesele legitime pot prima asupra consimțământului. Puteți citi mai multe informații în acest sens în Politica privind Confidențialitatea Datelor și Cookie.